Location: Glion
(46.4330°N, 6.9246°E)
Time: 21:37:24
(UTC+00:00)

MetOp-A - Pass Details

Date: 03 March 2021
Orbit: 819 x 821 km, 98.5° (Epoch: 22 April)

Event Time Altitude Azimuth Distance (km) Brightness Sun altitude
Exits shadow 19:26:38 - 175° (S) 2,629 6.6 -22.2°
Reaches altitude 10° 19:27:11 10° 176° (S) 2,412 6.4 -22.3°
Maximum altitude 19:32:30 65° 258° (WSW) 906 4.5 -23.2°
Drops below altitude 10° 19:37:51 10° 340° (NNW) 2,430 7.0 -24.1°
Sets 19:40:14 0° 344° (NNW) 3,367 7.8 -24.5°
